EZY96XD EGBB-LPFR

Flight info

Callsign EZY96XD
Flight time 2h 30m
Altitude 36000
Route ADMEX Y321 PEPIS Q41 SAM M195 LORKU DCT BALDA DCT ABUPI DCT DIGAL DCT ALAGU
Aircraft A320/M-SDE2E3FGHIJ1RWXYZ/LB1

Departure

Time 2026-05-06 14:21
Airport Birmingham Airport (EGBB)

Arrival

Time 2026-05-06 16:52
Airport Faro - Gago Coutinho International Airport (LPFR)
Time Latitude Longitude Altitude Speed Heading
2026-05-06 14:00 52.45344 -1.73697 324 ft 0 kts 146°
2026-05-06 14:13 52.45355 -1.73708 323 ft 4 kts 146°
2026-05-06 14:13 52.45373 -1.73728 321 ft 4 kts 154°
2026-05-06 14:13 52.45398 -1.73740 321 ft 4 kts 186°
2026-05-06 14:13 52.45418 -1.73724 323 ft 3 kts 236°
2026-05-06 14:14 52.45408 -1.73748 320 ft 2 kts 236°
2026-05-06 14:14 52.45407 -1.73751 321 ft 0 kts 236°
2026-05-06 14:16 52.45407 -1.73752 321 ft 1 kts 236°
2026-05-06 14:16 52.45376 -1.73826 323 ft 15 kts 236°
2026-05-06 14:16 52.45303 -1.73972 323 ft 14 kts 194°
2026-05-06 14:16 52.45230 -1.73917 323 ft 11 kts 147°
2026-05-06 14:17 52.45189 -1.73873 323 ft 10 kts 146°
2026-05-06 14:17 52.45113 -1.73790 323 ft 11 kts 147°
2026-05-06 14:17 52.45037 -1.73758 323 ft 9 kts 188°
2026-05-06 14:17 52.45030 -1.73759 323 ft 0 kts 188°
2026-05-06 14:18 52.45028 -1.73759 323 ft 2 kts 182°
2026-05-06 14:18 52.44990 -1.73708 323 ft 13 kts 142°
2026-05-06 14:18 52.44916 -1.73641 323 ft 11 kts 186°
2026-05-06 14:19 52.44848 -1.73670 323 ft 9 kts 197°
2026-05-06 14:19 52.44790 -1.73699 322 ft 8 kts 197°
2026-05-06 14:19 52.44745 -1.73727 322 ft 7 kts 207°
2026-05-06 14:19 52.44703 -1.73793 325 ft 7 kts 234°
2026-05-06 14:20 52.44685 -1.73838 324 ft 3 kts 236°
2026-05-06 14:20 52.44666 -1.73887 326 ft 9 kts 242°
2026-05-06 14:20 52.44665 -1.74000 325 ft 10 kts 313°
2026-05-06 14:20 52.44715 -1.74062 325 ft 11 kts 325°
2026-05-06 14:21 52.44948 -1.74318 326 ft 77 kts 326°
2026-05-06 14:21 52.45574 -1.75007 324 ft 138 kts 326°
2026-05-06 14:21 52.46450 -1.75993 665 ft 154 kts 327°
2026-05-06 14:21 52.47354 -1.77023 1365 ft 160 kts 328°
2026-05-06 14:22 52.47955 -1.77704 1901 ft 152 kts 327°
2026-05-06 14:22 52.49197 -1.79122 2361 ft 176 kts 328°
2026-05-06 14:22 52.50340 -1.80218 2553 ft 202 kts 345°
2026-05-06 14:22 52.51773 -1.80281 2975 ft 214 kts 18°
2026-05-06 14:23 52.52662 -1.79570 3452 ft 217 kts 38°
2026-05-06 14:23 52.53582 -1.77597 4171 ft 224 kts 70°
2026-05-06 14:23 52.53882 -1.75072 4915 ft 229 kts 86°
2026-05-06 14:23 52.53682 -1.72459 5648 ft 234 kts 100°
2026-05-06 14:24 52.53317 -1.69823 6361 ft 238 kts 99°
2026-05-06 14:24 52.52778 -1.67229 7002 ft 246 kts 118°
2026-05-06 14:24 52.51635 -1.64979 7306 ft 270 kts 134°
2026-05-06 14:24 52.50246 -1.62762 7766 ft 284 kts 135°
2026-05-06 14:25 52.48812 -1.60478 8487 ft 290 kts 135°
2026-05-06 14:25 52.47362 -1.58151 9229 ft 294 kts 135°
2026-05-06 14:25 52.45811 -1.55868 9940 ft 300 kts 146°
2026-05-06 14:25 52.43992 -1.54036 10321 ft 316 kts 149°
2026-05-06 14:26 52.42037 -1.52113 10497 ft 339 kts 149°
2026-05-06 14:26 52.39986 -1.50094 11023 ft 347 kts 149°
2026-05-06 14:26 52.37907 -1.48044 11669 ft 353 kts 150°
2026-05-06 14:26 52.35667 -1.46355 12314 ft 356 kts 162°
2026-05-06 14:27 52.33257 -1.45430 13043 ft 356 kts 172°
2026-05-06 14:27 52.30808 -1.44763 13774 ft 358 kts 172°
2026-05-06 14:27 52.28339 -1.44067 14375 ft 362 kts 172°
2026-05-06 14:27 52.25843 -1.43349 14959 ft 365 kts 172°
2026-05-06 14:28 52.23338 -1.42629 15562 ft 367 kts 172°
2026-05-06 14:28 52.20811 -1.41913 16161 ft 370 kts 172°
2026-05-06 14:28 52.18263 -1.41194 16766 ft 372 kts 172°
2026-05-06 14:28 52.15703 -1.40474 17358 ft 375 kts 172°
2026-05-06 14:29 52.13123 -1.39751 17958 ft 378 kts 172°
2026-05-06 14:29 52.10526 -1.39020 18498 ft 381 kts 172°
2026-05-06 14:29 52.07903 -1.38275 18993 ft 383 kts 172°
2026-05-06 14:29 52.05234 -1.37513 19519 ft 386 kts 172°
2026-05-06 14:30 52.02579 -1.36761 20005 ft 388 kts 172°
2026-05-06 14:30 51.99944 -1.36026 20527 ft 390 kts 172°
2026-05-06 14:30 51.97238 -1.35277 21049 ft 392 kts 172°
2026-05-06 14:30 51.94543 -1.34528 21562 ft 394 kts 172°
2026-05-06 14:31 51.91832 -1.33774 22080 ft 396 kts 173°
2026-05-06 14:31 51.89107 -1.33014 22590 ft 399 kts 173°
2026-05-06 14:31 51.86193 -1.32197 23095 ft 401 kts 173°
2026-05-06 14:31 51.83456 -1.31433 23563 ft 404 kts 173°
2026-05-06 14:32 51.80678 -1.30661 23952 ft 406 kts 173°
2026-05-06 14:32 51.77889 -1.29889 24330 ft 408 kts 172°
2026-05-06 14:32 51.75087 -1.29111 24713 ft 410 kts 172°
2026-05-06 14:32 51.72270 -1.28331 25068 ft 412 kts 172°
2026-05-06 14:33 51.69438 -1.27548 25421 ft 414 kts 172°
2026-05-06 14:33 51.66594 -1.26759 25765 ft 416 kts 172°
2026-05-06 14:33 51.63735 -1.25968 26111 ft 418 kts 172°
2026-05-06 14:33 51.60864 -1.25176 26450 ft 419 kts 173°
2026-05-06 14:34 51.57983 -1.24385 26777 ft 421 kts 172°
2026-05-06 14:34 51.55085 -1.23594 27086 ft 424 kts 173°
2026-05-06 14:34 51.52171 -1.22801 27387 ft 426 kts 172°
2026-05-06 14:34 51.49226 -1.22162 27706 ft 426 kts 178°
2026-05-06 14:35 51.46263 -1.22194 28010 ft 427 kts 185°
2026-05-06 14:35 51.43288 -1.22437 28322 ft 429 kts 185°
2026-05-06 14:35 51.40303 -1.22679 28616 ft 431 kts 184°
2026-05-06 14:35 51.37306 -1.22927 28906 ft 432 kts 185°
2026-05-06 14:36 51.34293 -1.23180 29191 ft 434 kts 185°
2026-05-06 14:36 51.31226 -1.23434 29451 ft 437 kts 184°
2026-05-06 14:36 51.28192 -1.23680 29691 ft 439 kts 185°
2026-05-06 14:36 51.25130 -1.23926 29942 ft 441 kts 185°
2026-05-06 14:37 51.22061 -1.24168 30183 ft 443 kts 184°
2026-05-06 14:37 51.19042 -1.24699 30383 ft 443 kts 192°
2026-05-06 14:37 51.16013 -1.25890 30594 ft 443 kts 195°
2026-05-06 14:37 51.13037 -1.27167 30829 ft 443 kts 196°
2026-05-06 14:38 51.10061 -1.28432 31126 ft 442 kts 197°
2026-05-06 14:38 51.07091 -1.29683 31411 ft 442 kts 197°
2026-05-06 14:38 51.04121 -1.30923 31708 ft 441 kts 197°
2026-05-06 14:38 51.02382 -1.31645 31892 ft 440 kts 196°
2026-05-06 14:39 50.99629 -1.32801 32156 ft 440 kts 196°
2026-05-06 14:39 50.96760 -1.34157 32421 ft 438 kts 202°
2026-05-06 14:39 50.93951 -1.36218 32711 ft 435 kts 212°
2026-05-06 14:40 50.91407 -1.38779 32992 ft 433 kts 215°
2026-05-06 14:40 50.88891 -1.41412 33263 ft 433 kts 215°
2026-05-06 14:40 50.86376 -1.44038 33541 ft 432 kts 215°
2026-05-06 14:40 50.83863 -1.46654 33787 ft 432 kts 215°
2026-05-06 14:41 50.81349 -1.49266 34045 ft 432 kts 215°
2026-05-06 14:41 50.78838 -1.51870 34267 ft 432 kts 214°
2026-05-06 14:41 50.76326 -1.54468 34470 ft 432 kts 214°
2026-05-06 14:41 50.73812 -1.57065 34678 ft 432 kts 214°
2026-05-06 14:42 50.71298 -1.59660 34874 ft 432 kts 214°
2026-05-06 14:42 50.68784 -1.62251 35061 ft 432 kts 214°
2026-05-06 14:42 50.66269 -1.64840 35250 ft 431 kts 214°
2026-05-06 14:42 50.63754 -1.67423 35427 ft 431 kts 214°
2026-05-06 14:43 50.61238 -1.70004 35565 ft 432 kts 214°
2026-05-06 14:43 50.58717 -1.72593 35705 ft 433 kts 214°
2026-05-06 14:43 50.56194 -1.75183 35870 ft 433 kts 214°
2026-05-06 14:43 50.53675 -1.77764 35981 ft 433 kts 214°
2026-05-06 14:44 50.48642 -1.82907 36000 ft 431 kts 214°
2026-05-06 14:45 50.41103 -1.90559 36000 ft 430 kts 214°
2026-05-06 14:45 50.36083 -1.95646 36002 ft 430 kts 214°
2026-05-06 14:46 50.31054 -2.00744 36005 ft 431 kts 214°
2026-05-06 14:46 50.26020 -2.05827 36007 ft 431 kts 214°
2026-05-06 14:47 50.20964 -2.10863 36008 ft 431 kts 213°
2026-05-06 14:47 50.15872 -2.15805 36005 ft 431 kts 213°
2026-05-06 14:48 50.10770 -2.20724 36002 ft 432 kts 213°
2026-05-06 14:48 50.05669 -2.25665 36003 ft 432 kts 213°
2026-05-06 14:49 50.00568 -2.30606 36003 ft 432 kts 213°
2026-05-06 14:49 49.95463 -2.35534 36007 ft 432 kts 213°
2026-05-06 14:50 49.90057 -2.39625 36015 ft 433 kts 205°
2026-05-06 14:50 49.85413 -2.42710 36018 ft 434 kts 205°
2026-05-06 14:51 49.79862 -2.46384 36021 ft 434 kts 205°
2026-05-06 14:51 49.74310 -2.50053 36022 ft 434 kts 205°
2026-05-06 14:52 49.68756 -2.53732 36015 ft 434 kts 205°
2026-05-06 14:52 49.63199 -2.57413 35998 ft 435 kts 205°
2026-05-06 14:53 49.57633 -2.61074 36000 ft 435 kts 204°
2026-05-06 14:53 49.52064 -2.64718 36009 ft 435 kts 204°
2026-05-06 14:54 49.46490 -2.68350 35992 ft 435 kts 204°
2026-05-06 14:54 49.40914 -2.71980 36002 ft 435 kts 205°
2026-05-06 14:55 49.35271 -2.75663 36008 ft 435 kts 204°
2026-05-06 14:55 49.29694 -2.79278 36002 ft 435 kts 204°
2026-05-06 14:56 49.24114 -2.82885 35990 ft 435 kts 204°
2026-05-06 14:56 49.18537 -2.86493 35990 ft 435 kts 204°
2026-05-06 14:57 49.12954 -2.90100 35996 ft 436 kts 204°
2026-05-06 14:57 49.07363 -2.93695 35997 ft 436 kts 204°
2026-05-06 14:58 49.01774 -2.97265 35991 ft 436 kts 204°
2026-05-06 14:58 48.96177 -3.00839 35989 ft 436 kts 204°
2026-05-06 14:59 48.90581 -3.04416 35986 ft 436 kts 204°
2026-05-06 14:59 48.84983 -3.07992 35990 ft 436 kts 204°
2026-05-06 15:00 48.79387 -3.11552 35993 ft 436 kts 204°
2026-05-06 15:00 48.73793 -3.15090 36000 ft 436 kts 204°
2026-05-06 15:01 48.68202 -3.18621 35999 ft 435 kts 204°
2026-05-06 15:01 48.62610 -3.22142 35996 ft 435 kts 204°
2026-05-06 15:02 48.57016 -3.25660 35991 ft 435 kts 204°
2026-05-06 15:02 48.51430 -3.29165 35980 ft 435 kts 204°
2026-05-06 15:03 48.45835 -3.32657 35978 ft 435 kts 204°
2026-05-06 15:03 48.40240 -3.36144 35976 ft 435 kts 204°
2026-05-06 15:04 48.34650 -3.39633 35966 ft 435 kts 204°
2026-05-06 15:04 48.29055 -3.43111 35962 ft 435 kts 204°
2026-05-06 15:05 48.23457 -3.46582 35958 ft 435 kts 204°
2026-05-06 15:05 48.17857 -3.50049 35964 ft 435 kts 204°
2026-05-06 15:06 48.12254 -3.53509 35964 ft 436 kts 204°
2026-05-06 15:06 48.06646 -3.56961 35964 ft 436 kts 204°
2026-05-06 15:07 48.01032 -3.60389 35970 ft 436 kts 204°
2026-05-06 15:07 47.95418 -3.63834 35963 ft 436 kts 204°
2026-05-06 15:08 47.89798 -3.67269 35967 ft 436 kts 204°
2026-05-06 15:08 47.84183 -3.70689 35966 ft 436 kts 204°
2026-05-06 15:09 47.78565 -3.74105 35969 ft 436 kts 204°
2026-05-06 15:09 47.72952 -3.77529 35970 ft 436 kts 204°
2026-05-06 15:10 47.67336 -3.80937 35968 ft 436 kts 204°
2026-05-06 15:10 47.61717 -3.84320 35974 ft 436 kts 204°
2026-05-06 15:11 47.56055 -3.87724 35987 ft 436 kts 204°
2026-05-06 15:11 47.50437 -3.91103 35979 ft 436 kts 204°
2026-05-06 15:12 47.44816 -3.94478 35983 ft 436 kts 204°
2026-05-06 15:12 47.39190 -3.97841 35992 ft 436 kts 204°
2026-05-06 15:13 47.33560 -4.01198 35993 ft 436 kts 204°
2026-05-06 15:13 47.27928 -4.04552 35997 ft 436 kts 204°
2026-05-06 15:14 47.22295 -4.07903 36002 ft 437 kts 204°
2026-05-06 15:14 47.16659 -4.11249 36005 ft 437 kts 204°
2026-05-06 15:15 47.11024 -4.14588 36006 ft 437 kts 204°
2026-05-06 15:15 47.05389 -4.17921 36003 ft 436 kts 204°
2026-05-06 15:16 46.99753 -4.21240 36012 ft 436 kts 204°
2026-05-06 15:16 46.94115 -4.24543 36011 ft 436 kts 204°
2026-05-06 15:17 46.88478 -4.27846 36012 ft 436 kts 204°
2026-05-06 15:17 46.82850 -4.31141 36009 ft 436 kts 204°
2026-05-06 15:18 46.77214 -4.34426 36015 ft 436 kts 204°
2026-05-06 15:18 46.71580 -4.37703 36009 ft 436 kts 204°
2026-05-06 15:19 46.65944 -4.40977 36018 ft 436 kts 204°
2026-05-06 15:19 46.60308 -4.44244 36020 ft 436 kts 204°
2026-05-06 15:20 46.54669 -4.47497 36017 ft 436 kts 204°
2026-05-06 15:20 46.49033 -4.50755 36024 ft 436 kts 204°
2026-05-06 15:21 46.43397 -4.54006 36017 ft 436 kts 204°
2026-05-06 15:21 46.37760 -4.57246 36014 ft 436 kts 203°
2026-05-06 15:22 46.32081 -4.60494 36019 ft 436 kts 203°
2026-05-06 15:22 46.26445 -4.63712 36014 ft 436 kts 204°
2026-05-06 15:23 46.21753 -4.66397 36016 ft 436 kts 203°
2026-05-06 15:23 46.15189 -4.70134 36021 ft 437 kts 203°
2026-05-06 15:24 46.09534 -4.73348 36026 ft 437 kts 203°
2026-05-06 15:24 46.04799 -4.76031 36021 ft 437 kts 203°
2026-05-06 15:25 45.99144 -4.79227 36039 ft 436 kts 203°
2026-05-06 15:25 45.93427 -4.82461 36040 ft 435 kts 203°
2026-05-06 15:26 45.87831 -4.85624 36038 ft 435 kts 203°
2026-05-06 15:26 45.82200 -4.88777 36034 ft 434 kts 203°
2026-05-06 15:27 45.76565 -4.91922 36034 ft 435 kts 203°
2026-05-06 15:27 45.70933 -4.95078 36034 ft 435 kts 203°
2026-05-06 15:28 45.65269 -4.98258 36016 ft 435 kts 203°
2026-05-06 15:28 45.59629 -5.01400 36017 ft 435 kts 203°
2026-05-06 15:29 45.53984 -5.04541 36031 ft 435 kts 203°
2026-05-06 15:29 45.48335 -5.07670 36033 ft 435 kts 203°
2026-05-06 15:30 45.42694 -5.10779 36032 ft 435 kts 203°
2026-05-06 15:30 45.37058 -5.13897 36040 ft 434 kts 203°
2026-05-06 15:31 45.31422 -5.17011 36047 ft 434 kts 203°
2026-05-06 15:31 45.25796 -5.20119 36037 ft 434 kts 203°
2026-05-06 15:32 45.17343 -5.24746 36045 ft 434 kts 203°
2026-05-06 15:32 45.11712 -5.27819 36043 ft 434 kts 203°
2026-05-06 15:33 45.06090 -5.30884 36039 ft 433 kts 203°
2026-05-06 15:33 45.00462 -5.33950 36034 ft 433 kts 203°
2026-05-06 15:34 44.94837 -5.37013 36037 ft 433 kts 203°
2026-05-06 15:34 44.89218 -5.40067 36046 ft 432 kts 203°
2026-05-06 15:35 44.83605 -5.43108 36043 ft 432 kts 203°
2026-05-06 15:35 44.77996 -5.46135 36041 ft 431 kts 203°
2026-05-06 15:36 44.72398 -5.49156 36039 ft 431 kts 203°
2026-05-06 15:36 44.66792 -5.52171 36037 ft 431 kts 203°
2026-05-06 15:37 44.61189 -5.55190 36036 ft 431 kts 203°
2026-05-06 15:37 44.55648 -5.58426 36041 ft 431 kts 206°
2026-05-06 15:38 44.50194 -5.61893 36035 ft 430 kts 206°
2026-05-06 15:38 44.44741 -5.65347 36030 ft 430 kts 206°
2026-05-06 15:39 44.39259 -5.68734 36031 ft 430 kts 206°
2026-05-06 15:39 44.33774 -5.72094 36026 ft 430 kts 205°
2026-05-06 15:40 44.28292 -5.75440 36034 ft 430 kts 205°
2026-05-06 15:40 44.22810 -5.78788 36027 ft 430 kts 206°
2026-05-06 15:41 44.17336 -5.82139 36029 ft 430 kts 206°
2026-05-06 15:41 44.11853 -5.85479 36031 ft 430 kts 206°
2026-05-06 15:42 44.06375 -5.88813 36022 ft 430 kts 206°
2026-05-06 15:42 44.00892 -5.92133 36029 ft 430 kts 206°
2026-05-06 15:43 43.95409 -5.95446 36031 ft 430 kts 206°
2026-05-06 15:43 43.89934 -5.98764 36035 ft 430 kts 206°
2026-05-06 15:44 43.84450 -6.02078 36028 ft 430 kts 206°
2026-05-06 15:44 43.78968 -6.05374 36033 ft 430 kts 206°
2026-05-06 15:45 43.73479 -6.08672 36038 ft 430 kts 206°
2026-05-06 15:45 43.67999 -6.11958 36038 ft 430 kts 206°
2026-05-06 15:46 43.62517 -6.15239 36038 ft 429 kts 206°
2026-05-06 15:46 43.57033 -6.18513 36043 ft 429 kts 206°
2026-05-06 15:47 43.51561 -6.21778 36043 ft 429 kts 206°
2026-05-06 15:47 43.46086 -6.25043 36035 ft 429 kts 206°
2026-05-06 15:48 43.40609 -6.28286 36031 ft 428 kts 205°
2026-05-06 15:48 43.35132 -6.31515 36032 ft 428 kts 206°
2026-05-06 15:49 43.29660 -6.34750 36023 ft 428 kts 206°
2026-05-06 15:49 43.24192 -6.37981 36005 ft 428 kts 206°
2026-05-06 15:50 43.18731 -6.41206 36008 ft 428 kts 206°
2026-05-06 15:50 43.13265 -6.44426 35997 ft 427 kts 206°
2026-05-06 15:51 43.07798 -6.47625 35985 ft 427 kts 205°
2026-05-06 15:51 43.02338 -6.50817 35982 ft 426 kts 205°
2026-05-06 15:52 42.96889 -6.54000 35981 ft 426 kts 205°
2026-05-06 15:52 42.91445 -6.57177 35969 ft 425 kts 205°
2026-05-06 15:53 42.86003 -6.60353 35968 ft 425 kts 205°
2026-05-06 15:53 42.80559 -6.63517 35946 ft 425 kts 205°
2026-05-06 15:54 42.75117 -6.66666 35954 ft 425 kts 205°
2026-05-06 15:54 42.69677 -6.69811 35959 ft 425 kts 205°
2026-05-06 15:55 42.64237 -6.72955 35955 ft 425 kts 205°
2026-05-06 15:55 42.58798 -6.76088 35956 ft 424 kts 205°
2026-05-06 15:56 42.53364 -6.79217 35955 ft 424 kts 205°
2026-05-06 15:56 42.47939 -6.82337 35950 ft 424 kts 205°
2026-05-06 15:57 42.42508 -6.85450 35955 ft 423 kts 205°
2026-05-06 15:57 42.37088 -6.88556 35952 ft 422 kts 205°
2026-05-06 15:58 42.31679 -6.91648 35954 ft 422 kts 205°
2026-05-06 15:58 42.26203 -6.94454 35951 ft 424 kts 193°
2026-05-06 15:59 42.20343 -6.95529 35938 ft 425 kts 190°
2026-05-06 15:59 42.14500 -6.96516 35651 ft 422 kts 190°
2026-05-06 16:00 42.11588 -6.97003 35119 ft 422 kts 189°
2026-05-06 16:00 42.09622 -6.97329 34985 ft 422 kts 190°
2026-05-06 16:00 42.03798 -6.98314 34943 ft 422 kts 190°
2026-05-06 16:01 41.97972 -6.99304 34937 ft 422 kts 190°
2026-05-06 16:01 41.92138 -7.00293 34950 ft 422 kts 190°
2026-05-06 16:02 41.86310 -7.01284 34936 ft 422 kts 190°
2026-05-06 16:02 41.80481 -7.02261 34938 ft 422 kts 190°
2026-05-06 16:03 41.74652 -7.03240 34939 ft 422 kts 190°
2026-05-06 16:03 41.68819 -7.04216 34936 ft 422 kts 190°
2026-05-06 16:04 41.62987 -7.05194 34933 ft 422 kts 190°
2026-05-06 16:04 41.57160 -7.06178 34928 ft 422 kts 190°
2026-05-06 16:05 41.51334 -7.07149 34929 ft 422 kts 190°
2026-05-06 16:05 41.45390 -7.08137 34923 ft 422 kts 190°
2026-05-06 16:06 41.39557 -7.09104 34923 ft 422 kts 190°
2026-05-06 16:06 41.33730 -7.10066 34907 ft 422 kts 190°
2026-05-06 16:07 41.27897 -7.11036 34917 ft 423 kts 190°
2026-05-06 16:07 41.22058 -7.12007 34917 ft 423 kts 191°
2026-05-06 16:08 41.16223 -7.12970 34917 ft 423 kts 190°
2026-05-06 16:08 41.10384 -7.13922 34912 ft 423 kts 191°
2026-05-06 16:09 41.04537 -7.14878 34917 ft 423 kts 191°
2026-05-06 16:09 40.98695 -7.15847 34919 ft 423 kts 191°
2026-05-06 16:10 40.92847 -7.16809 34918 ft 423 kts 191°
2026-05-06 16:10 40.86995 -7.17763 34918 ft 424 kts 191°
2026-05-06 16:11 40.81134 -7.18728 34915 ft 424 kts 191°
2026-05-06 16:11 40.75269 -7.19686 34918 ft 425 kts 191°
2026-05-06 16:12 40.69401 -7.20639 34917 ft 425 kts 191°
2026-05-06 16:12 40.63537 -7.21589 34914 ft 425 kts 191°
2026-05-06 16:13 40.57659 -7.22548 34914 ft 425 kts 191°
2026-05-06 16:13 40.51783 -7.23495 34915 ft 425 kts 191°
2026-05-06 16:14 40.45910 -7.24447 34912 ft 425 kts 191°
2026-05-06 16:14 40.40037 -7.25395 34906 ft 425 kts 191°
2026-05-06 16:15 40.34165 -7.26338 34910 ft 425 kts 191°
2026-05-06 16:15 40.28295 -7.27282 34904 ft 425 kts 191°
2026-05-06 16:16 40.22384 -7.28230 34899 ft 425 kts 191°
2026-05-06 16:16 40.16535 -7.29168 34903 ft 426 kts 191°
2026-05-06 16:17 40.10617 -7.30116 34900 ft 426 kts 191°
2026-05-06 16:17 40.04728 -7.31059 34897 ft 426 kts 191°
2026-05-06 16:18 39.98840 -7.31996 34897 ft 427 kts 192°
2026-05-06 16:18 39.92942 -7.32937 34898 ft 427 kts 191°
2026-05-06 16:19 39.87040 -7.33875 34895 ft 427 kts 192°
2026-05-06 16:19 39.81136 -7.34814 34899 ft 427 kts 191°
2026-05-06 16:20 39.75232 -7.35742 34895 ft 428 kts 192°
2026-05-06 16:20 39.69319 -7.36673 34895 ft 428 kts 192°
2026-05-06 16:21 39.63409 -7.37612 34895 ft 428 kts 192°
2026-05-06 16:21 39.57501 -7.38552 34895 ft 428 kts 192°
2026-05-06 16:22 39.51581 -7.39481 34893 ft 429 kts 192°
2026-05-06 16:22 39.45761 -7.40389 34894 ft 429 kts 192°
2026-05-06 16:23 39.39839 -7.41318 34899 ft 429 kts 192°
2026-05-06 16:23 39.33915 -7.42243 34880 ft 429 kts 192°
2026-05-06 16:24 39.27989 -7.43169 34895 ft 429 kts 192°
2026-05-06 16:24 39.22061 -7.44091 34898 ft 429 kts 192°
2026-05-06 16:25 39.16131 -7.45013 34898 ft 429 kts 192°
2026-05-06 16:25 39.10200 -7.45937 34888 ft 429 kts 192°
2026-05-06 16:26 39.04271 -7.46859 34901 ft 430 kts 192°
2026-05-06 16:26 38.98327 -7.47773 34901 ft 430 kts 192°
2026-05-06 16:27 38.92387 -7.48693 34901 ft 430 kts 192°
2026-05-06 16:27 38.86455 -7.49611 34890 ft 430 kts 191°
2026-05-06 16:28 38.83474 -7.50070 34768 ft 432 kts 191°
2026-05-06 16:28 38.80495 -7.50526 34513 ft 430 kts 191°
2026-05-06 16:28 38.77525 -7.50979 33912 ft 430 kts 191°
2026-05-06 16:28 38.74555 -7.51437 33333 ft 429 kts 191°
2026-05-06 16:29 38.71583 -7.51896 33060 ft 430 kts 191°
2026-05-06 16:29 38.68614 -7.52353 32792 ft 431 kts 191°
2026-05-06 16:29 38.65636 -7.52806 32527 ft 431 kts 191°
2026-05-06 16:29 38.62664 -7.53258 32251 ft 429 kts 191°
2026-05-06 16:30 38.59705 -7.53713 31991 ft 427 kts 191°
2026-05-06 16:30 38.58711 -7.53865 31901 ft 426 kts 191°
2026-05-06 16:30 38.53835 -7.54610 31477 ft 422 kts 191°
2026-05-06 16:30 38.50924 -7.55051 31226 ft 420 kts 191°
2026-05-06 16:31 38.48031 -7.55491 30974 ft 418 kts 191°
2026-05-06 16:31 38.45160 -7.55927 30727 ft 415 kts 191°
2026-05-06 16:31 38.42298 -7.56361 30478 ft 413 kts 191°
2026-05-06 16:31 38.39451 -7.56797 30217 ft 411 kts 191°
2026-05-06 16:32 38.36618 -7.57231 29960 ft 408 kts 191°
2026-05-06 16:32 38.34728 -7.57519 29605 ft 405 kts 191°
2026-05-06 16:32 38.31944 -7.57942 29080 ft 400 kts 191°
2026-05-06 16:32 38.29201 -7.58358 28584 ft 395 kts 191°
2026-05-06 16:33 38.26481 -7.58772 28080 ft 391 kts 190°
2026-05-06 16:33 38.23800 -7.59178 27597 ft 387 kts 190°
2026-05-06 16:33 38.21139 -7.59581 27127 ft 383 kts 190°
2026-05-06 16:34 38.15895 -7.60369 26207 ft 376 kts 190°
2026-05-06 16:34 38.13318 -7.60759 25769 ft 373 kts 190°
2026-05-06 16:34 38.10743 -7.61152 25331 ft 370 kts 190°
2026-05-06 16:34 38.08181 -7.61442 24890 ft 369 kts 184°
2026-05-06 16:35 38.05623 -7.61443 24449 ft 367 kts 183°
2026-05-06 16:35 38.03059 -7.61442 23889 ft 368 kts 183°
2026-05-06 16:35 38.00501 -7.61443 23414 ft 367 kts 183°
2026-05-06 16:35 37.97963 -7.61445 22904 ft 364 kts 183°
2026-05-06 16:36 37.95436 -7.61446 22397 ft 362 kts 183°
2026-05-06 16:36 37.92928 -7.61447 21903 ft 359 kts 183°
2026-05-06 16:36 37.90434 -7.61449 21451 ft 357 kts 183°
2026-05-06 16:36 37.87948 -7.61448 20634 ft 363 kts 183°
2026-05-06 16:37 37.85401 -7.61450 19856 ft 371 kts 182°
2026-05-06 16:37 37.82817 -7.61451 19313 ft 371 kts 182°
2026-05-06 16:37 37.80244 -7.61452 18827 ft 369 kts 182°
2026-05-06 16:37 37.77684 -7.61453 18358 ft 367 kts 182°
2026-05-06 16:38 37.75142 -7.61453 17854 ft 364 kts 182°
2026-05-06 16:38 37.72616 -7.61454 17346 ft 362 kts 182°
2026-05-06 16:38 37.70105 -7.61455 16838 ft 359 kts 182°
2026-05-06 16:38 37.67612 -7.61457 16357 ft 357 kts 182°
2026-05-06 16:39 37.65140 -7.61460 15896 ft 354 kts 182°
2026-05-06 16:39 37.62684 -7.61464 15424 ft 352 kts 182°
2026-05-06 16:39 37.60245 -7.61466 14977 ft 349 kts 182°
2026-05-06 16:39 37.57822 -7.61467 14526 ft 347 kts 182°
2026-05-06 16:40 37.55416 -7.61467 14102 ft 344 kts 181°
2026-05-06 16:40 37.53029 -7.61466 13637 ft 342 kts 181°
2026-05-06 16:40 37.50658 -7.61465 13142 ft 340 kts 181°
2026-05-06 16:40 37.48296 -7.61465 12648 ft 338 kts 181°
2026-05-06 16:41 37.45952 -7.61466 12175 ft 335 kts 181°
2026-05-06 16:41 37.43622 -7.61467 11666 ft 334 kts 181°
2026-05-06 16:41 37.41325 -7.61465 11375 ft 325 kts 181°
2026-05-06 16:41 37.39065 -7.61465 11125 ft 317 kts 181°
2026-05-06 16:42 37.36881 -7.61467 10883 ft 312 kts 181°
2026-05-06 16:42 37.34709 -7.61470 10635 ft 311 kts 181°
2026-05-06 16:42 37.32552 -7.61471 10392 ft 309 kts 181°
2026-05-06 16:42 37.30399 -7.61471 10151 ft 309 kts 181°
2026-05-06 16:43 37.28271 -7.61471 9960 ft 301 kts 181°
2026-05-06 16:43 37.26213 -7.61471 9813 ft 291 kts 181°
2026-05-06 16:43 37.24213 -7.61475 9683 ft 286 kts 181°
2026-05-06 16:43 37.22219 -7.61477 9219 ft 285 kts 181°
2026-05-06 16:44 37.20236 -7.61476 8660 ft 286 kts 180°
2026-05-06 16:44 37.18231 -7.61476 8094 ft 291 kts 180°
2026-05-06 16:44 37.16218 -7.61474 7591 ft 288 kts 180°
2026-05-06 16:44 37.14210 -7.61475 6955 ft 288 kts 179°
2026-05-06 16:45 37.12209 -7.61476 6376 ft 287 kts 179°
2026-05-06 16:45 37.10210 -7.61478 5782 ft 290 kts 179°
2026-05-06 16:45 37.08195 -7.61711 5356 ft 289 kts 193°
2026-05-06 16:45 37.06336 -7.62550 5166 ft 279 kts 204°
2026-05-06 16:46 37.04601 -7.63508 5041 ft 266 kts 204°
2026-05-06 16:46 37.02945 -7.64417 4931 ft 254 kts 205°
2026-05-06 16:46 37.01348 -7.65293 4824 ft 248 kts 204°
2026-05-06 16:46 36.99844 -7.66319 4491 ft 246 kts 221°
2026-05-06 16:47 36.98717 -7.67854 4298 ft 235 kts 240°
2026-05-06 16:47 36.98067 -7.69667 4086 ft 225 kts 259°
2026-05-06 16:47 36.97898 -7.71573 3833 ft 218 kts 276°
2026-05-06 16:47 36.98121 -7.73429 3555 ft 214 kts 282°
2026-05-06 16:48 36.98386 -7.75254 3273 ft 212 kts 283°
2026-05-06 16:48 36.98653 -7.77101 2994 ft 211 kts 283°
2026-05-06 16:48 36.98910 -7.78884 2725 ft 208 kts 283°
2026-05-06 16:48 36.99157 -7.80609 2447 ft 195 kts 283°
2026-05-06 16:49 36.99392 -7.82248 2199 ft 187 kts 283°
2026-05-06 16:49 36.99615 -7.83802 1957 ft 176 kts 283°
2026-05-06 16:49 36.99821 -7.85244 1724 ft 160 kts 282°
2026-05-06 16:49 37.00013 -7.86580 1513 ft 149 kts 283°
2026-05-06 16:50 37.00193 -7.87839 1319 ft 142 kts 283°
2026-05-06 16:50 37.00365 -7.89038 1139 ft 138 kts 282°
2026-05-06 16:50 37.00533 -7.90209 950 ft 136 kts 282°
2026-05-06 16:50 37.00700 -7.91379 771 ft 137 kts 277°
2026-05-06 16:51 37.00865 -7.92534 594 ft 133 kts 277°
2026-05-06 16:51 37.01029 -7.93688 392 ft 135 kts 278°
2026-05-06 16:51 37.01180 -7.94857 206 ft 136 kts 280°
2026-05-06 16:51 37.01362 -7.96018 55 ft 135 kts 278°
2026-05-06 16:52 37.01511 -7.97070 21 ft 95 kts 280°
2026-05-06 16:52 37.01568 -7.97500 20 ft 15 kts 280°
2026-05-06 16:52 37.01590 -7.97649 19 ft 23 kts 281°
2026-05-06 16:52 37.01628 -7.97869 21 ft 25 kts 283°
2026-05-06 16:53 37.01680 -7.98073 24 ft 26 kts 303°
2026-05-06 16:53 37.01785 -7.98229 21 ft 11 kts 349°
2026-05-06 16:53 37.01848 -7.98194 21 ft 10 kts 66°
2026-05-06 16:53 37.01844 -7.98114 23 ft 9 kts 101°
2026-05-06 16:54 37.01835 -7.98058 20 ft 5 kts 100°
2026-05-06 16:54 37.01830 -7.98019 23 ft 4 kts 100°
2026-05-06 16:54 37.01825 -7.97987 20 ft 4 kts 99°
2026-05-06 16:54 37.01815 -7.97916 20 ft 15 kts 100°
2026-05-06 16:55 37.01795 -7.97763 20 ft 17 kts 99°
2026-05-06 16:55 37.01776 -7.97626 20 ft 15 kts 99°
2026-05-06 16:55 37.01759 -7.97499 20 ft 14 kts 100°
2026-05-06 16:55 37.01742 -7.97380 22 ft 15 kts 100°
2026-05-06 16:56 37.01720 -7.97231 20 ft 18 kts 100°
2026-05-06 16:56 37.01701 -7.97084 20 ft 16 kts 99°
2026-05-06 16:56 37.01682 -7.96958 21 ft 13 kts 92°
2026-05-06 16:56 37.01739 -7.96900 22 ft 11 kts
2026-05-06 16:57 37.01809 -7.96879 21 ft 10 kts 27°
2026-05-06 16:57 37.01851 -7.96861 20 ft 9 kts
2026-05-06 16:57 37.01905 -7.96850 20 ft 4 kts 11°
2026-05-06 16:57 37.01916 -7.96847 21 ft 0 kts 11°